Year,Month,Day,Hour,Minute,Value (Times are PST for temperature in C)
2017,06,27,00,00,13.80
2017,06,27,00,01,13.70
2017,06,27,00,02,13.70
2017,06,27,00,03,13.70
2017,06,27,00,04,13.70
2017,06,27,00,05,13.70
2017,06,27,00,06,13.60
2017,06,27,00,07,13.60
2017,06,27,00,08,13.50
2017,06,27,00,09,13.50
2017,06,27,00,10,13.50
2017,06,27,00,11,13.40
2017,06,27,00,12,13.40
2017,06,27,00,13,13.40
2017,06,27,00,14,13.40
2017,06,27,00,15,13.40
2017,06,27,00,16,13.40
2017,06,27,00,17,13.40
2017,06,27,00,18,13.40
2017,06,27,00,19,13.40
2017,06,27,00,20,13.40
2017,06,27,00,21,13.40
2017,06,27,00,22,13.40
2017,06,27,00,23,13.40
2017,06,27,00,24,13.30
2017,06,27,00,25,13.30
2017,06,27,00,26,13.30
2017,06,27,00,27,13.30
2017,06,27,00,28,13.20
2017,06,27,00,29,13.20
2017,06,27,00,30,13.20
2017,06,27,00,31,13.10
2017,06,27,00,32,13.10
2017,06,27,00,33,13.00
2017,06,27,00,34,13.00
2017,06,27,00,35,12.90
2017,06,27,00,36,12.90
2017,06,27,00,37,12.90
2017,06,27,00,38,12.80
2017,06,27,00,39,12.80
2017,06,27,00,40,12.80
2017,06,27,00,41,12.80
2017,06,27,00,42,12.80
2017,06,27,00,43,12.80
2017,06,27,00,44,12.80
2017,06,27,00,45,12.80
2017,06,27,00,46,12.80
2017,06,27,00,47,12.80
2017,06,27,00,48,12.80
2017,06,27,00,49,12.70
2017,06,27,00,50,12.70
2017,06,27,00,51,12.70
2017,06,27,00,52,12.70
2017,06,27,00,53,12.70
2017,06,27,00,54,12.70
2017,06,27,00,55,12.70
2017,06,27,00,56,12.70
2017,06,27,00,57,12.70
2017,06,27,00,58,12.70
2017,06,27,00,59,12.70
2017,06,27,01,00,12.70
2017,06,27,01,01,12.80
2017,06,27,01,02,12.80
2017,06,27,01,03,12.80
2017,06,27,01,04,12.80
2017,06,27,01,05,12.80
2017,06,27,01,06,12.70
2017,06,27,01,07,12.70
2017,06,27,01,08,12.70
2017,06,27,01,09,12.70
2017,06,27,01,10,12.70
2017,06,27,01,11,12.70
2017,06,27,01,12,12.70
2017,06,27,01,13,12.80
2017,06,27,01,14,12.80
2017,06,27,01,15,12.80
2017,06,27,01,16,12.80
2017,06,27,01,17,12.80
2017,06,27,01,18,12.80
2017,06,27,01,19,12.80
2017,06,27,01,20,12.80
2017,06,27,01,21,12.80
2017,06,27,01,22,12.80
2017,06,27,01,23,12.80
2017,06,27,01,24,12.80
2017,06,27,01,25,12.80
2017,06,27,01,26,12.80
2017,06,27,01,27,12.80
2017,06,27,01,28,12.80
2017,06,27,01,29,12.80
2017,06,27,01,30,12.80
2017,06,27,01,31,12.80
2017,06,27,01,32,12.80
2017,06,27,01,33,12.90
2017,06,27,01,34,13.00
2017,06,27,01,35,13.10
2017,06,27,01,36,13.10
2017,06,27,01,37,13.10
2017,06,27,01,38,13.00
2017,06,27,01,39,13.00
2017,06,27,01,40,13.00
2017,06,27,01,41,13.00
2017,06,27,01,42,13.00
2017,06,27,01,43,12.90
2017,06,27,01,44,12.90
2017,06,27,01,45,12.90
2017,06,27,01,46,12.90
2017,06,27,01,47,12.90
2017,06,27,01,48,12.90
2017,06,27,01,49,12.90
2017,06,27,01,50,12.90
2017,06,27,01,51,13.00
2017,06,27,01,52,13.00
2017,06,27,01,53,13.10
2017,06,27,01,54,13.20
2017,06,27,01,55,13.30
2017,06,27,01,56,13.40
2017,06,27,01,57,13.40
2017,06,27,01,58,13.50
2017,06,27,01,59,13.50
2017,06,27,02,00,13.40
2017,06,27,02,01,13.40
2017,06,27,02,02,13.40
2017,06,27,02,03,13.40
2017,06,27,02,04,13.30
2017,06,27,02,05,13.30
2017,06,27,02,06,13.20
2017,06,27,02,07,13.20
2017,06,27,02,08,13.20
2017,06,27,02,09,13.10
2017,06,27,02,10,13.10
2017,06,27,02,11,13.10
2017,06,27,02,12,13.10
2017,06,27,02,13,13.10
2017,06,27,02,14,13.00
2017,06,27,02,15,13.00
2017,06,27,02,16,13.00
2017,06,27,02,17,12.90
2017,06,27,02,18,12.90
2017,06,27,02,19,12.90
2017,06,27,02,20,12.90
2017,06,27,02,21,12.90
2017,06,27,02,22,12.90
2017,06,27,02,23,12.90
2017,06,27,02,24,12.80
2017,06,27,02,25,12.80
2017,06,27,02,26,12.80
2017,06,27,02,27,12.80
2017,06,27,02,28,12.80
2017,06,27,02,29,12.80
2017,06,27,02,30,12.80
2017,06,27,02,31,12.80
2017,06,27,02,32,12.80
2017,06,27,02,33,12.70
2017,06,27,02,34,12.70
2017,06,27,02,35,12.70
2017,06,27,02,36,12.70
2017,06,27,02,37,12.60
2017,06,27,02,38,12.60
2017,06,27,02,39,12.50
2017,06,27,02,40,12.50
2017,06,27,02,41,12.50
2017,06,27,02,42,12.60
2017,06,27,02,43,12.60
2017,06,27,02,44,12.70
2017,06,27,02,45,12.70
2017,06,27,02,46,12.70
2017,06,27,02,47,12.70
2017,06,27,02,48,12.70
2017,06,27,02,49,12.70
2017,06,27,02,50,12.70
2017,06,27,02,51,12.70
2017,06,27,02,52,12.70
2017,06,27,02,53,12.70
2017,06,27,02,54,12.70
2017,06,27,02,55,12.60
2017,06,27,02,56,12.70
2017,06,27,02,57,12.70
2017,06,27,02,58,12.70
2017,06,27,02,59,12.70
2017,06,27,03,00,12.80
2017,06,27,03,01,12.80
2017,06,27,03,02,12.80
2017,06,27,03,03,12.80
2017,06,27,03,04,12.90
2017,06,27,03,05,12.90
2017,06,27,03,06,12.90
2017,06,27,03,07,13.00
2017,06,27,03,08,13.00
2017,06,27,03,09,13.00
2017,06,27,03,10,13.00
2017,06,27,03,11,13.00
2017,06,27,03,12,13.00
2017,06,27,03,13,13.00
2017,06,27,03,14,13.00
2017,06,27,03,15,13.00
2017,06,27,03,16,12.90
2017,06,27,03,17,12.90
2017,06,27,03,18,12.90
2017,06,27,03,19,12.90
2017,06,27,03,20,12.90
2017,06,27,03,21,12.90
2017,06,27,03,22,12.90
2017,06,27,03,23,12.90
2017,06,27,03,24,12.90
2017,06,27,03,25,12.90
2017,06,27,03,26,12.90
2017,06,27,03,27,12.90
2017,06,27,03,28,12.90
2017,06,27,03,29,12.90
2017,06,27,03,30,12.90
2017,06,27,03,31,12.90
2017,06,27,03,32,12.80
2017,06,27,03,33,12.80
2017,06,27,03,34,12.80
2017,06,27,03,35,12.80
2017,06,27,03,36,12.80
2017,06,27,03,37,12.80
2017,06,27,03,38,12.80
2017,06,27,03,39,12.80
2017,06,27,03,40,12.70
2017,06,27,03,41,12.70
2017,06,27,03,42,12.70
2017,06,27,03,43,12.70
2017,06,27,03,44,12.70
2017,06,27,03,45,12.70
2017,06,27,03,46,12.70
2017,06,27,03,47,12.70
2017,06,27,03,48,12.80
2017,06,27,03,49,12.80
2017,06,27,03,50,12.80
2017,06,27,03,51,12.80
2017,06,27,03,52,12.80
2017,06,27,03,53,12.80
2017,06,27,03,54,12.80
2017,06,27,03,55,12.80
2017,06,27,03,56,12.80
2017,06,27,03,57,12.80
2017,06,27,03,58,12.80
2017,06,27,03,59,12.90
2017,06,27,04,00,12.90
2017,06,27,04,01,12.90
2017,06,27,04,02,13.00
2017,06,27,04,03,13.10
2017,06,27,04,04,13.20
2017,06,27,04,05,13.20
2017,06,27,04,06,13.30
2017,06,27,04,07,13.30
2017,06,27,04,08,13.30
2017,06,27,04,09,13.30
2017,06,27,04,10,13.20
2017,06,27,04,11,13.20
2017,06,27,04,12,13.20
2017,06,27,04,13,13.20
2017,06,27,04,14,13.20
2017,06,27,04,15,13.10
2017,06,27,04,16,13.10
2017,06,27,04,17,13.10
2017,06,27,04,18,13.10
2017,06,27,04,19,13.10
2017,06,27,04,20,13.10
2017,06,27,04,21,13.00
2017,06,27,04,22,13.00
2017,06,27,04,23,13.00
2017,06,27,04,24,13.00
2017,06,27,04,25,13.00
2017,06,27,04,26,12.90
2017,06,27,04,27,13.00
2017,06,27,04,28,13.00
2017,06,27,04,29,12.90
2017,06,27,04,30,12.90
2017,06,27,04,31,12.90
2017,06,27,04,32,12.90
2017,06,27,04,33,12.90
2017,06,27,04,34,12.90
2017,06,27,04,35,12.90
2017,06,27,04,36,12.90
2017,06,27,04,37,12.90
2017,06,27,04,38,12.90
2017,06,27,04,39,12.90
2017,06,27,04,40,12.90
2017,06,27,04,41,12.90
2017,06,27,04,42,12.90
2017,06,27,04,43,13.00
2017,06,27,04,44,13.00
2017,06,27,04,45,13.10
2017,06,27,04,46,13.10
2017,06,27,04,47,13.10
2017,06,27,04,48,13.10
2017,06,27,04,49,13.10
2017,06,27,04,50,13.10
2017,06,27,04,51,13.20
2017,06,27,04,52,13.10
2017,06,27,04,53,13.10
2017,06,27,04,54,13.10
2017,06,27,04,55,13.20
2017,06,27,04,56,13.20
2017,06,27,04,57,13.20
2017,06,27,04,58,13.20
2017,06,27,04,59,13.20
2017,06,27,05,00,13.10
2017,06,27,05,01,13.10
2017,06,27,05,02,13.10
2017,06,27,05,03,13.10
2017,06,27,05,04,13.10
2017,06,27,05,05,13.10
2017,06,27,05,06,13.10
2017,06,27,05,07,13.10
2017,06,27,05,08,13.10
2017,06,27,05,09,13.10
2017,06,27,05,10,13.10
2017,06,27,05,11,13.10
2017,06,27,05,12,13.10
2017,06,27,05,13,13.10
2017,06,27,05,14,13.10
2017,06,27,05,15,13.00
2017,06,27,05,16,13.00
2017,06,27,05,17,13.00
2017,06,27,05,18,12.90
2017,06,27,05,19,12.90
2017,06,27,05,20,12.90
2017,06,27,05,21,12.90
2017,06,27,05,22,12.90
2017,06,27,05,23,12.80
2017,06,27,05,24,12.80
2017,06,27,05,25,12.80
2017,06,27,05,26,12.80
2017,06,27,05,27,12.80
2017,06,27,05,28,12.80
2017,06,27,05,29,12.70
2017,06,27,05,30,12.70
2017,06,27,05,31,12.70
2017,06,27,05,32,12.70
2017,06,27,05,33,12.60
2017,06,27,05,34,12.60
2017,06,27,05,35,12.50
2017,06,27,05,36,12.50
2017,06,27,05,37,12.50
2017,06,27,05,38,12.40
2017,06,27,05,39,12.40
2017,06,27,05,40,12.40
2017,06,27,05,41,12.40
2017,06,27,05,42,12.40
2017,06,27,05,43,12.40
2017,06,27,05,44,12.30
2017,06,27,05,45,12.30
2017,06,27,05,46,12.30
2017,06,27,05,47,12.30
2017,06,27,05,48,12.30
2017,06,27,05,49,12.30
2017,06,27,05,50,12.30
2017,06,27,05,51,12.30
2017,06,27,05,52,12.30
2017,06,27,05,53,12.30
2017,06,27,05,54,12.30
2017,06,27,05,55,12.30
2017,06,27,05,56,12.30
2017,06,27,05,57,12.20
2017,06,27,05,58,12.20
2017,06,27,05,59,12.30
2017,06,27,06,00,12.30
2017,06,27,06,01,12.20
2017,06,27,06,02,12.20
2017,06,27,06,03,12.20
2017,06,27,06,04,12.20
2017,06,27,06,05,12.20
2017,06,27,06,06,12.30
2017,06,27,06,07,12.30
2017,06,27,06,08,12.30
2017,06,27,06,09,12.30
2017,06,27,06,10,12.30
2017,06,27,06,11,12.30
2017,06,27,06,12,12.40
2017,06,27,06,13,12.40
2017,06,27,06,14,12.40
2017,06,27,06,15,12.50
2017,06,27,06,16,12.50
2017,06,27,06,17,12.50
2017,06,27,06,18,12.50
2017,06,27,06,19,12.60
2017,06,27,06,20,12.60
2017,06,27,06,21,12.60
2017,06,27,06,22,12.60
2017,06,27,06,23,12.60
2017,06,27,06,24,12.60
2017,06,27,06,25,12.70
2017,06,27,06,26,12.60
2017,06,27,06,27,12.70
2017,06,27,06,28,12.70
2017,06,27,06,29,12.70
2017,06,27,06,30,12.70
2017,06,27,06,31,12.70
2017,06,27,06,32,12.80
2017,06,27,06,33,12.80
2017,06,27,06,34,12.80
2017,06,27,06,35,12.80
2017,06,27,06,36,12.90
2017,06,27,06,37,12.90
2017,06,27,06,38,13.00
2017,06,27,06,39,13.00
2017,06,27,06,40,13.10
2017,06,27,06,41,13.10
2017,06,27,06,42,13.10
2017,06,27,06,43,13.10
2017,06,27,06,44,13.20
2017,06,27,06,45,13.20
2017,06,27,06,46,13.30
2017,06,27,06,47,13.40
2017,06,27,06,48,13.40
2017,06,27,06,49,13.50
2017,06,27,06,50,13.60
2017,06,27,06,51,13.70
2017,06,27,06,52,13.70
2017,06,27,06,53,13.80
2017,06,27,06,54,13.80
2017,06,27,06,55,13.90
2017,06,27,06,56,13.90
2017,06,27,06,57,13.80
2017,06,27,06,58,13.80
2017,06,27,06,59,13.80
2017,06,27,07,00,13.70
2017,06,27,07,01,13.70
2017,06,27,07,02,13.70
2017,06,27,07,03,13.70
2017,06,27,07,04,13.70
2017,06,27,07,05,13.70
2017,06,27,07,06,13.80
2017,06,27,07,07,13.80
2017,06,27,07,08,13.90
2017,06,27,07,09,14.00
2017,06,27,07,10,14.20
2017,06,27,07,11,14.30
2017,06,27,07,12,14.30
2017,06,27,07,13,14.30
2017,06,27,07,14,14.40
2017,06,27,07,15,14.50
2017,06,27,07,16,14.60
2017,06,27,07,17,14.60
2017,06,27,07,18,14.70
2017,06,27,07,19,14.70
2017,06,27,07,20,14.70
2017,06,27,07,21,14.60
2017,06,27,07,22,14.60
2017,06,27,07,23,14.60
2017,06,27,07,24,14.70
2017,06,27,07,25,14.80
2017,06,27,07,26,14.90
2017,06,27,07,27,15.00
2017,06,27,07,28,15.10
2017,06,27,07,29,15.20
2017,06,27,07,30,15.20
2017,06,27,07,31,15.20
2017,06,27,07,32,15.30
2017,06,27,07,33,15.40
2017,06,27,07,34,15.50
2017,06,27,07,35,15.60
2017,06,27,07,36,15.60
2017,06,27,07,37,15.70
2017,06,27,07,38,15.70
2017,06,27,07,39,15.70
2017,06,27,07,40,15.80
2017,06,27,07,41,15.90
2017,06,27,07,42,15.90
2017,06,27,07,43,16.00
2017,06,27,07,44,16.00
2017,06,27,07,45,16.00
2017,06,27,07,46,16.00
2017,06,27,07,47,16.00
2017,06,27,07,48,16.10
2017,06,27,07,49,16.10
2017,06,27,07,50,16.20
2017,06,27,07,51,16.30
2017,06,27,07,52,16.30
2017,06,27,07,53,16.30
2017,06,27,07,54,16.30
2017,06,27,07,55,16.40
2017,06,27,07,56,16.40
2017,06,27,07,57,16.50
2017,06,27,07,58,16.60
2017,06,27,07,59,16.60
2017,06,27,08,00,16.70
2017,06,27,08,01,16.70
2017,06,27,08,02,16.80
2017,06,27,08,03,16.80
2017,06,27,08,04,16.80
2017,06,27,08,05,16.90
2017,06,27,08,06,16.90
2017,06,27,08,07,16.90
2017,06,27,08,08,16.80
2017,06,27,08,09,16.80
2017,06,27,08,10,16.80
2017,06,27,08,11,16.80
2017,06,27,08,12,16.80
2017,06,27,08,13,16.90
2017,06,27,08,14,16.90
2017,06,27,08,15,16.80
2017,06,27,08,16,16.70
2017,06,27,08,17,16.70
2017,06,27,08,18,16.60
2017,06,27,08,19,16.60
2017,06,27,08,20,16.50
2017,06,27,08,21,16.40
2017,06,27,08,22,16.40
2017,06,27,08,23,16.40
2017,06,27,08,24,16.40
2017,06,27,08,25,16.40
2017,06,27,08,26,16.50
2017,06,27,08,27,16.60
2017,06,27,08,28,16.60
2017,06,27,08,29,16.50
2017,06,27,08,30,16.40
2017,06,27,08,31,16.30
2017,06,27,08,32,16.20
2017,06,27,08,33,16.00
2017,06,27,08,34,15.90
2017,06,27,08,35,15.90
2017,06,27,08,36,15.80
2017,06,27,08,37,15.70
2017,06,27,08,38,15.60
2017,06,27,08,39,15.60
2017,06,27,08,40,15.70
2017,06,27,08,41,15.80
2017,06,27,08,42,15.90
2017,06,27,08,43,16.00
2017,06,27,08,44,16.10
2017,06,27,08,45,16.10
2017,06,27,08,46,16.20
2017,06,27,08,47,16.20
2017,06,27,08,48,16.20
2017,06,27,08,49,16.20
2017,06,27,08,50,16.20
2017,06,27,08,51,16.10
2017,06,27,08,52,16.00
2017,06,27,08,53,16.00
2017,06,27,08,54,16.10
2017,06,27,08,55,16.10
2017,06,27,08,56,16.20
2017,06,27,08,57,16.30
2017,06,27,08,58,16.40
2017,06,27,08,59,16.40
2017,06,27,09,00,16.40
2017,06,27,09,01,16.50
2017,06,27,09,02,16.60
2017,06,27,09,03,16.70
2017,06,27,09,04,16.70
2017,06,27,09,05,16.80
2017,06,27,09,06,16.80
2017,06,27,09,07,16.70
2017,06,27,09,08,16.60
2017,06,27,09,09,16.50
2017,06,27,09,10,16.50
2017,06,27,09,11,16.50
2017,06,27,09,12,16.60
2017,06,27,09,13,16.60
2017,06,27,09,14,16.60
2017,06,27,09,15,16.60
2017,06,27,09,16,16.70
2017,06,27,09,17,16.70
2017,06,27,09,18,16.70
2017,06,27,09,19,16.70
2017,06,27,09,20,16.70
2017,06,27,09,21,16.70
2017,06,27,09,22,16.70
2017,06,27,09,23,16.80
2017,06,27,09,24,16.90
2017,06,27,09,25,17.00
2017,06,27,09,26,17.00
2017,06,27,09,27,17.10
2017,06,27,09,28,17.20
2017,06,27,09,29,17.40
2017,06,27,09,30,17.50
2017,06,27,09,31,17.60
2017,06,27,09,32,17.70
2017,06,27,09,33,17.70
2017,06,27,09,34,17.70
2017,06,27,09,35,17.70
2017,06,27,09,36,17.70
2017,06,27,09,37,17.60
2017,06,27,09,38,17.50
2017,06,27,09,39,17.40
2017,06,27,09,40,17.30
2017,06,27,09,41,17.40
2017,06,27,09,42,17.40
2017,06,27,09,43,17.40
2017,06,27,09,44,17.40
2017,06,27,09,45,17.30
2017,06,27,09,46,17.30
2017,06,27,09,47,17.30
2017,06,27,09,48,17.30
2017,06,27,09,49,17.40
2017,06,27,09,50,17.40
2017,06,27,09,51,17.40
2017,06,27,09,52,17.50
2017,06,27,09,53,17.40
2017,06,27,09,54,17.50
2017,06,27,09,55,17.50
2017,06,27,09,56,17.60
2017,06,27,09,57,17.60
2017,06,27,09,58,17.60
2017,06,27,09,59,17.40
2017,06,27,10,00,17.20
2017,06,27,10,01,17.20
2017,06,27,10,02,17.20
2017,06,27,10,03,17.30
2017,06,27,10,04,17.40
2017,06,27,10,05,17.50
2017,06,27,10,06,17.60
2017,06,27,10,07,17.70
2017,06,27,10,08,17.80
2017,06,27,10,09,17.80
2017,06,27,10,10,17.90
2017,06,27,10,11,17.90
2017,06,27,10,12,17.90
2017,06,27,10,13,17.90
2017,06,27,10,14,17.80
2017,06,27,10,15,17.70
2017,06,27,10,16,17.70
2017,06,27,10,17,17.70
2017,06,27,10,18,17.70
2017,06,27,10,19,17.80
2017,06,27,10,20,17.80
2017,06,27,10,21,17.70
2017,06,27,10,22,17.70
2017,06,27,10,23,17.70
2017,06,27,10,24,17.70
2017,06,27,10,25,17.70
2017,06,27,10,26,17.50
2017,06,27,10,27,17.50
2017,06,27,10,28,17.50
2017,06,27,10,29,17.50
2017,06,27,10,30,17.60
2017,06,27,10,31,17.70
2017,06,27,10,32,17.70
2017,06,27,10,33,17.80
2017,06,27,10,34,17.80
2017,06,27,10,35,17.70
2017,06,27,10,36,17.60
2017,06,27,10,37,17.40
2017,06,27,10,38,17.30
2017,06,27,10,39,17.30
2017,06,27,10,40,17.30
2017,06,27,10,41,17.40
2017,06,27,10,42,17.50
2017,06,27,10,43,17.60
2017,06,27,10,44,17.60
2017,06,27,10,45,17.60
2017,06,27,10,46,17.60
2017,06,27,10,47,17.70
2017,06,27,10,48,17.80
2017,06,27,10,49,17.90
2017,06,27,10,50,17.90
2017,06,27,10,51,17.90
2017,06,27,10,52,17.90
2017,06,27,10,53,18.00
2017,06,27,10,54,18.10
2017,06,27,10,55,18.10
2017,06,27,10,56,17.90
2017,06,27,10,57,17.70
2017,06,27,10,58,17.50
2017,06,27,10,59,17.40
2017,06,27,11,00,17.40
2017,06,27,11,01,17.30
2017,06,27,11,02,17.30
2017,06,27,11,03,17.30
2017,06,27,11,04,17.30
2017,06,27,11,05,17.30
2017,06,27,11,06,17.30
2017,06,27,11,07,17.30
2017,06,27,11,08,17.30
2017,06,27,11,09,17.40
2017,06,27,11,10,17.50
2017,06,27,11,11,17.50
2017,06,27,11,12,17.50
2017,06,27,11,13,17.40
2017,06,27,11,14,17.40
2017,06,27,11,15,17.40
2017,06,27,11,16,17.50
2017,06,27,11,17,17.60
2017,06,27,11,18,17.60
2017,06,27,11,19,17.70
2017,06,27,11,20,17.70
2017,06,27,11,21,17.70
2017,06,27,11,22,17.70
2017,06,27,11,23,17.70
2017,06,27,11,24,17.70
2017,06,27,11,25,17.60
2017,06,27,11,26,17.60
2017,06,27,11,27,17.60
2017,06,27,11,28,17.70
2017,06,27,11,29,17.70
2017,06,27,11,30,17.60
2017,06,27,11,31,17.60
2017,06,27,11,32,17.60
2017,06,27,11,33,17.60
2017,06,27,11,34,17.60
2017,06,27,11,35,17.80
2017,06,27,11,36,17.80
2017,06,27,11,37,17.90
2017,06,27,11,38,17.90
2017,06,27,11,39,18.00
2017,06,27,11,40,18.00
2017,06,27,11,41,18.00
2017,06,27,11,42,18.00
2017,06,27,11,43,18.00
2017,06,27,11,44,17.90
2017,06,27,11,45,17.80
2017,06,27,11,46,17.70
2017,06,27,11,47,17.70
2017,06,27,11,48,17.70
2017,06,27,11,49,17.80
2017,06,27,11,50,17.90
2017,06,27,11,51,17.90
2017,06,27,11,52,17.90
2017,06,27,11,53,17.90
2017,06,27,11,54,17.90
2017,06,27,11,55,17.70
2017,06,27,11,56,17.70
2017,06,27,11,57,17.70
2017,06,27,11,58,17.70
2017,06,27,11,59,17.70
2017,06,27,12,00,17.80
2017,06,27,12,01,17.80
2017,06,27,12,02,17.70
2017,06,27,12,03,17.70
2017,06,27,12,04,17.50
2017,06,27,12,05,17.50
2017,06,27,12,06,17.40
2017,06,27,12,07,17.40
2017,06,27,12,08,17.50
2017,06,27,12,09,17.50
2017,06,27,12,10,17.50
2017,06,27,12,11,17.40
2017,06,27,12,12,17.40
2017,06,27,12,13,17.40
2017,06,27,12,14,17.50
2017,06,27,12,15,17.60
2017,06,27,12,16,17.70
2017,06,27,12,17,17.80
2017,06,27,12,18,17.90
2017,06,27,12,19,17.90
2017,06,27,12,20,18.00
2017,06,27,12,21,18.00
2017,06,27,12,22,18.10
2017,06,27,12,23,18.00
2017,06,27,12,24,17.90
2017,06,27,12,25,17.90
2017,06,27,12,26,17.90
2017,06,27,12,27,17.90
2017,06,27,12,28,17.90
2017,06,27,12,29,17.90
2017,06,27,12,30,18.00
2017,06,27,12,31,17.90
2017,06,27,12,32,17.90
2017,06,27,12,33,18.00
2017,06,27,12,34,18.10
2017,06,27,12,35,18.10
2017,06,27,12,36,18.20
2017,06,27,12,37,18.20
2017,06,27,12,38,18.10
2017,06,27,12,39,18.00
2017,06,27,12,40,17.90
2017,06,27,12,41,17.90
2017,06,27,12,42,17.80
2017,06,27,12,43,17.80
2017,06,27,12,44,17.80
2017,06,27,12,45,17.90
2017,06,27,12,46,18.00
2017,06,27,12,47,18.00
2017,06,27,12,48,18.00
2017,06,27,12,49,17.90
2017,06,27,12,50,17.80
2017,06,27,12,51,17.80
2017,06,27,12,52,17.90
2017,06,27,12,53,18.00
2017,06,27,12,54,18.00
2017,06,27,12,55,18.00
2017,06,27,12,56,18.00
2017,06,27,12,57,18.10
2017,06,27,12,58,18.00
2017,06,27,12,59,18.00
2017,06,27,13,00,18.00
2017,06,27,13,01,18.00
2017,06,27,13,02,17.90
2017,06,27,13,03,17.80
2017,06,27,13,04,17.90
2017,06,27,13,05,18.10
2017,06,27,13,06,18.20
2017,06,27,13,07,18.30
2017,06,27,13,08,18.30
2017,06,27,13,09,18.40
2017,06,27,13,10,18.40
2017,06,27,13,11,18.40
2017,06,27,13,12,18.50
2017,06,27,13,13,18.60
2017,06,27,13,14,18.50
2017,06,27,13,15,18.40
2017,06,27,13,16,18.30
2017,06,27,13,17,18.20
2017,06,27,13,18,18.20
2017,06,27,13,19,18.30
2017,06,27,13,20,18.20
2017,06,27,13,21,18.20
2017,06,27,13,22,18.10
2017,06,27,13,23,18.00
2017,06,27,13,24,17.90
2017,06,27,13,25,17.80
2017,06,27,13,26,17.80
2017,06,27,13,27,17.80
2017,06,27,13,28,17.80
2017,06,27,13,29,17.90
2017,06,27,13,30,18.00
2017,06,27,13,31,18.00
2017,06,27,13,32,18.00
2017,06,27,13,33,18.10
2017,06,27,13,34,18.20
2017,06,27,13,35,18.20
2017,06,27,13,36,18.30
2017,06,27,13,37,18.30
2017,06,27,13,38,18.40
2017,06,27,13,39,18.50
2017,06,27,13,40,18.60
2017,06,27,13,41,18.50
2017,06,27,13,42,18.50
2017,06,27,13,43,18.50
2017,06,27,13,44,18.30
2017,06,27,13,45,18.20
2017,06,27,13,46,18.10
2017,06,27,13,47,18.10
2017,06,27,13,48,18.10
2017,06,27,13,49,18.20
2017,06,27,13,50,18.50
2017,06,27,13,51,18.60
2017,06,27,13,52,18.70
2017,06,27,13,53,18.70
2017,06,27,13,54,18.60
2017,06,27,13,55,18.60
2017,06,27,13,56,18.50
2017,06,27,13,57,18.50
2017,06,27,13,58,18.50
2017,06,27,13,59,18.40
2017,06,27,14,00,18.40
2017,06,27,14,01,18.40
2017,06,27,14,02,18.30
2017,06,27,14,03,18.30
2017,06,27,14,04,18.30
2017,06,27,14,05,18.40
2017,06,27,14,06,18.50
2017,06,27,14,07,18.60
2017,06,27,14,08,18.60
2017,06,27,14,09,18.60
2017,06,27,14,10,18.60
2017,06,27,14,11,18.50
2017,06,27,14,12,18.50
2017,06,27,14,13,18.50
2017,06,27,14,14,18.60
2017,06,27,14,15,18.70
2017,06,27,14,16,18.90
2017,06,27,14,17,19.00
2017,06,27,14,18,19.00
2017,06,27,14,19,18.90
2017,06,27,14,20,18.80
2017,06,27,14,21,18.70
2017,06,27,14,22,18.60
2017,06,27,14,23,18.40
2017,06,27,14,24,18.40
2017,06,27,14,25,18.50
2017,06,27,14,26,18.70
2017,06,27,14,27,18.60
2017,06,27,14,28,18.50
2017,06,27,14,29,18.50
2017,06,27,14,30,18.50
2017,06,27,14,31,18.50
2017,06,27,14,32,18.70
2017,06,27,14,33,18.70
2017,06,27,14,34,18.70
2017,06,27,14,35,18.50
2017,06,27,14,36,18.50
2017,06,27,14,37,18.40
2017,06,27,14,38,18.30
2017,06,27,14,39,18.30
2017,06,27,14,40,18.40
2017,06,27,14,41,18.50
2017,06,27,14,42,18.60
2017,06,27,14,43,18.70
2017,06,27,14,44,18.80
2017,06,27,14,45,18.90
2017,06,27,14,46,19.00
2017,06,27,14,47,19.10
2017,06,27,14,48,19.10
2017,06,27,14,49,19.20
2017,06,27,14,50,19.30
2017,06,27,14,51,19.40
2017,06,27,14,52,19.50
2017,06,27,14,53,19.60
2017,06,27,14,54,19.60
2017,06,27,14,55,19.50
2017,06,27,14,56,19.40
2017,06,27,14,57,19.20
2017,06,27,14,58,19.00
2017,06,27,14,59,19.00
2017,06,27,15,00,19.00
2017,06,27,15,01,19.10
2017,06,27,15,02,19.10
2017,06,27,15,03,19.20
2017,06,27,15,04,19.30
2017,06,27,15,05,19.30
2017,06,27,15,06,19.40
2017,06,27,15,07,19.40
2017,06,27,15,08,19.50
2017,06,27,15,09,19.60
2017,06,27,15,10,19.70
2017,06,27,15,11,19.80
2017,06,27,15,12,19.70
2017,06,27,15,13,19.50
2017,06,27,15,14,19.30
2017,06,27,15,15,19.20
2017,06,27,15,16,19.20
2017,06,27,15,17,19.10
2017,06,27,15,18,19.00
2017,06,27,15,19,19.00
2017,06,27,15,20,19.10
2017,06,27,15,21,19.20
2017,06,27,15,22,19.10
2017,06,27,15,23,19.10
2017,06,27,15,24,19.20
2017,06,27,15,25,19.20
2017,06,27,15,26,19.30
2017,06,27,15,27,19.40
2017,06,27,15,28,19.50
2017,06,27,15,29,19.50
2017,06,27,15,30,19.60
2017,06,27,15,31,19.60
2017,06,27,15,32,19.50
2017,06,27,15,33,19.50
2017,06,27,15,34,19.50
2017,06,27,15,35,19.60
2017,06,27,15,36,19.60
2017,06,27,15,37,19.70
2017,06,27,15,38,19.80
2017,06,27,15,39,19.70
2017,06,27,15,40,19.70
2017,06,27,15,41,19.70
2017,06,27,15,42,19.70
2017,06,27,15,43,19.70
2017,06,27,15,44,19.80
2017,06,27,15,45,19.80
2017,06,27,15,46,19.70
2017,06,27,15,47,19.50
2017,06,27,15,48,19.50
2017,06,27,15,49,19.40
2017,06,27,15,50,19.30
2017,06,27,15,51,19.40
2017,06,27,15,52,19.40
2017,06,27,15,53,19.40
2017,06,27,15,54,19.40
2017,06,27,15,55,19.50
2017,06,27,15,56,19.60
2017,06,27,15,57,19.60
2017,06,27,15,58,19.60
2017,06,27,15,59,19.70
2017,06,27,16,00,19.80
2017,06,27,16,01,19.80
2017,06,27,16,02,19.90
2017,06,27,16,03,19.80
2017,06,27,16,04,19.80
2017,06,27,16,05,19.90
2017,06,27,16,06,20.00
2017,06,27,16,07,20.00
2017,06,27,16,08,20.00
2017,06,27,16,09,20.00
2017,06,27,16,10,20.10
2017,06,27,16,11,20.20
2017,06,27,16,12,20.20
2017,06,27,16,13,20.20
2017,06,27,16,14,20.10
2017,06,27,16,15,20.00
2017,06,27,16,16,19.90
2017,06,27,16,17,19.80
2017,06,27,16,18,19.70
2017,06,27,16,19,19.70
2017,06,27,16,20,19.70
2017,06,27,16,21,19.80
2017,06,27,16,22,19.90
2017,06,27,16,23,19.80
2017,06,27,16,24,19.70
2017,06,27,16,25,19.60
2017,06,27,16,26,19.60
2017,06,27,16,27,19.60
2017,06,27,16,28,19.60
2017,06,27,16,29,19.60
2017,06,27,16,30,19.60
2017,06,27,16,31,19.60
2017,06,27,16,32,19.60
2017,06,27,16,33,19.60
2017,06,27,16,34,19.60
2017,06,27,16,35,19.60
2017,06,27,16,36,19.70
2017,06,27,16,37,19.90
2017,06,27,16,38,19.90
2017,06,27,16,39,19.90
2017,06,27,16,40,19.90
2017,06,27,16,41,19.90
2017,06,27,16,42,19.80
2017,06,27,16,43,19.80
2017,06,27,16,44,19.80
2017,06,27,16,45,19.80
2017,06,27,16,46,19.90
2017,06,27,16,47,19.90
2017,06,27,16,48,19.90
2017,06,27,16,49,19.90
2017,06,27,16,50,19.90
2017,06,27,16,51,19.80
2017,06,27,16,52,19.80
2017,06,27,16,53,19.80
2017,06,27,16,54,19.70
2017,06,27,16,55,19.70
2017,06,27,16,56,19.70
2017,06,27,16,57,19.70
2017,06,27,16,58,19.70
2017,06,27,16,59,19.70
2017,06,27,17,00,19.60
2017,06,27,17,01,19.60
2017,06,27,17,02,19.60
2017,06,27,17,03,19.60
2017,06,27,17,04,19.70
2017,06,27,17,05,19.70
2017,06,27,17,06,19.80
2017,06,27,17,07,19.90
2017,06,27,17,08,20.10
2017,06,27,17,09,20.20
2017,06,27,17,10,20.30
2017,06,27,17,11,20.30
2017,06,27,17,12,20.20
2017,06,27,17,13,20.10
2017,06,27,17,14,19.90
2017,06,27,17,15,19.90
2017,06,27,17,16,19.80
2017,06,27,17,17,19.70
2017,06,27,17,18,19.70
2017,06,27,17,19,19.70